Regional Weather Roundup
Issued by NWS

Home | Current Version | Previous Version | Text Only | Print | Product List | Glossary Off
Versions: 1 2 3 4 5 6 7 8 9 10 11 12 13 14 15 16 17 18 19 20 21 22 23 24 25 26 27 28 29 30 31 32 33 34 35 36 37 38 39 40 41 42 43 44 45 46 47 48 49 50

000
ASUS45 KABQ 211910
RWRNM
NEW MEXICO REGIONAL WEATHER ROUNDUP
NATIONAL WEATHER SERVICE ALBUQUERQUE NM
100 PM MDT SAT APR 21 2018

NOTE: "FAIR" MEANS FEW OR NO CLOUDS BELOW 12,000 FEET AGL WITH NO
       SIGNIFICANT WEATHER OR OBSTRUCTIONS TO VISION.

      THIS PRODUCT IS RELEASED AS TWO VERSIONS.  ONE VERSION NEAR
      THE TOP OF THE HOUR CONTAINING PRELIMINARY DATA FROM ALBUQUERQUE
      AND OTHER STATIONS.  A FINAL VERSION WITH ADDITIONAL DATA IS
      ISSUED ABOUT 10 MINUTES AFTER THE HOUR.

NMZ501-503-504-510>518-212000-
NORTHWEST PLATEAU/NORTHCENTRAL MOUNTAINS

CITY           SKY/WX    TMP DP  RH WIND       PRES   REMARKS
FARMINGTON     FAIR      59  28  30 SW7       30.08F
LOS ALAMOS     FAIR      51  23  33 NE14      30.13F
SANTA FE       FAIR      56  23  27 N14G25    30.10F
TAOS           PTSUNNY   51  22  31 N16G22    30.13F
ANGEL FIRE     CLOUDY    44  22  41 W13G18    30.11F

$$
NMZ402-403-502-505>509-212000-
WESTCENTRAL MOUNTAINS/SOUTHWEST MOUNTAINS

CITY           SKY/WX    TMP DP  RH WIND       PRES   REMARKS
GALLUP         PTSUNNY   58  34  40 VRB7      30.17F
GRANTS         FAIR      58  26  30 N15G26    30.16F
SILVER CITY    FAIR      67  23  19 SW6       30.11F

$$
NMZ407-409-411-412-212000-
SOUTHERN DESERTS

CITY           SKY/WX    TMP DP  RH WIND       PRES   REMARKS
DEMING         FAIR      67  24  19 SW6       30.11F
LAS CRUCES     FAIR      67  22  17 NW9       30.12F
HOLLOMAN AFB   FAIR      67  25  20 N20G32    30.12F
ALAMOGORDO     FAIR      64  25  22 NW18G32   30.11F
T OR C         FAIR      68  26  20 NE10      30.09F

$$
NMZ519>523-212000-
CENTRAL VALLEYS/CENTRAL HIGHLANDS

CITY           SKY/WX    TMP DP  RH WIND       PRES   REMARKS
ALBUQUERQUE    FAIR      55  30  38 CALM      30.14F
DOUBLE EAGLE   MOSUNNY   55  30  38 NW16      30.15F
MORIARTY ARPT  FAIR      58  27  30 NW10G18   30.12F
CLINES CORNERS FAIR      54  24  31 N15G22    30.13S
BELEN          PTSUNNY   56  28  33 N9G18     30.14F
SOCORRO        FAIR      61  28  28 N12G17    30.14F

$$
NMZ524>526-539-540-212000-
SOUTHCENTRAL MOUNTAINS

CITY           SKY/WX    TMP DP  RH WIND       PRES   REMARKS
RUIDOSO        FAIR      54  23  30 NW20G31   30.16S

$$
NMZ527>531-212000-
NORTHEAST HIGHLANDS/NORTHEAST PLAINS

CITY           SKY/WX    TMP DP  RH WIND       PRES   REMARKS
LAS VEGAS      FAIR      52  24  33 VRB3G18   30.09F
RATON          FAIR      49  29  46 NE15G24   30.08F
CLAYTON        CLOUDY    49  38  65 N14G23    30.08F

$$
NMZ532>537-212000-
EASTCENTRAL PLAINS

CITY           SKY/WX    TMP DP  RH WIND       PRES   REMARKS
SANTA ROSA     MOCLDY    58  29  33 N7G26     30.06F
TUCUMCARI      FAIR      58  41  53 N10G21    30.06F
CANNON AFB     PTSUNNY   54  47  77 N18G25    30.09F
CLOVIS AIRPORT CLOUDY    52  41  66 N22G29    30.10S

$$
NMZ028-029-538-212000-
SOUTHEAST PLAINS

CITY           SKY/WX    TMP DP  RH WIND       PRES   REMARKS
ROSWELL        FAIR      71  24  17 NW20G28   30.02S
ARTESIA        FAIR      72  25  17 N15G33    30.03S
CARLSBAD       FAIR      72  22  15 NW20G29   30.01F
HOBBS          SUNNY     68  25  19 NW17G31   30.01S


$$




USA.gov is the U.S. government's official web portal to all federal, state and local government web resources and services.